Find Kosmos-590

NORAD ID: 6847 Int'l Des: 1973-069 Owner: GUKOSR Country: SU operational
LEOCIRCULAR

Live Position

Loading 3D Globe...

About Kosmos-590

Description loading...

Upcoming Passes

Passes for default location (London). Set your location on the main map for personalized predictions.

Altitude History

Loading altitude history...

Two-Line Element Set

1 06847U 73069C 26106.02341640 .00000008 00000-0 15343-3 0 9992
2 06847 74.0006 316.2172 0034001 90.9965 63.0798 12.51109613399296
Epoch: Apr 16, 2026 • Age: 21 hours

Current Status

Altitude 1485.8 km
Velocity 7.11 km/s
Sub-Earth Point -31.64°S, 29.63°W
Type other

Most Searched